TimePST,TemperatureF,Dew PointF,Humidity,Sea Level PressureIn,VisibilityMPH,Wind Direction,Wind SpeedMPH,Gust SpeedMPH,PrecipitationIn,Events,Conditions,WindDirDegrees,DateUTC
12:35 AM,44.6,37.4,76,30.08,10.0,Calm,Calm,-,N/A,,Clear,0,2012-12-11 08:35:00
12:55 AM,44.6,37.4,76,30.08,10.0,WNW,3.5,-,N/A,,Clear,300,2012-12-11 08:55:00
1:15 AM,42.8,37.4,81,30.08,10.0,Calm,Calm,-,N/A,,Clear,0,2012-12-11 09:15:00
1:35 AM,42.8,37.4,81,30.07,10.0,Calm,Calm,-,N/A,,Clear,0,2012-12-11 09:35:00
1:55 AM,42.8,35.6,76,30.07,10.0,WNW,3.5,-,N/A,,Clear,300,2012-12-11 09:55:00
2:15 AM,42.8,35.6,76,30.07,10.0,Calm,Calm,-,N/A,,Clear,0,2012-12-11 10:15:00
2:35 AM,42.8,37.4,81,30.07,10.0,Calm,Calm,-,N/A,,Clear,0,2012-12-11 10:35:00
2:55 AM,42.8,35.6,76,30.07,10.0,North,-9999.0,-,N/A,,Clear,0,2012-12-11 10:55:00
3:15 AM,42.8,35.6,76,30.07,10.0,Calm,Calm,-,N/A,,Clear,0,2012-12-11 11:15:00
3:35 AM,41.0,35.6,81,30.07,10.0,Calm,Calm,-,N/A,,Clear,0,2012-12-11 11:35:00
3:55 AM,41.0,35.6,81,30.06,10.0,Calm,Calm,-,N/A,,Clear,0,2012-12-11 11:55:00
4:15 AM,41.0,35.6,81,30.05,10.0,Calm,Calm,-,N/A,,Clear,0,2012-12-11 12:15:00
4:35 AM,39.2,35.6,87,30.05,10.0,Calm,Calm,-,N/A,,Clear,0,2012-12-11 12:35:00
4:55 AM,39.2,35.6,87,30.05,10.0,WNW,3.5,-,N/A,,Clear,290,2012-12-11 12:55:00
5:15 AM,39.2,35.6,87,30.05,10.0,Calm,Calm,-,N/A,,Clear,0,2012-12-11 13:15:00
6:47 AM,39.2,35.6,87,30.06,25.0,Calm,Calm,-,N/A,,Clear,0,2012-12-11 14:47:00
7:51 AM,44.6,35.6,71,30.06,25.0,Calm,Calm,-,N/A,,Clear,0,2012-12-11 15:51:00
9:50 AM,60.8,35.6,39,30.06,25.0,Calm,Calm,-,N/A,,Scattered Clouds,0,2012-12-11 17:50:00
10:47 AM,69.8,33.8,27,30.03,25.0,Calm,Calm,-,N/A,,Scattered Clouds,0,2012-12-11 18:47:00
3:47 PM,71.6,42.8,35,29.96,25.0,WNW,8.1,-,N/A,,Clear,290,2012-12-11 23:47:00
8:15 PM,50.0,42.8,76,30.02,10.0,WNW,3.5,-,N/A,,Clear,300,2012-12-12 04:15:00
8:35 PM,48.2,42.8,82,30.02,10.0,Calm,Calm,-,N/A,,Clear,0,2012-12-12 04:35:00
8:55 PM,48.2,41.0,76,30.01,10.0,WNW,3.5,-,N/A,,Clear,300,2012-12-12 04:55:00
9:15 PM,48.2,41.0,76,30.01,10.0,Calm,Calm,-,N/A,,Clear,0,2012-12-12 05:15:00
9:35 PM,48.2,41.0,76,30.02,10.0,Calm,Calm,-,N/A,,Clear,0,2012-12-12 05:35:00
9:55 PM,46.4,41.0,81,30.02,10.0,NW,3.5,-,N/A,,Clear,310,2012-12-12 05:55:00
10:15 PM,46.4,42.8,87,30.02,10.0,Calm,Calm,-,N/A,,Clear,0,2012-12-12 06:15:00
10:35 PM,46.4,42.8,87,30.03,10.0,Calm,Calm,-,N/A,,Clear,0,2012-12-12 06:35:00
10:55 PM,46.4,42.8,87,30.03,10.0,Calm,Calm,-,N/A,,Mostly Cloudy,0,2012-12-12 06:55:00
11:15 PM,48.2,42.8,82,30.03,10.0,Calm,Calm,-,N/A,,Overcast,0,2012-12-12 07:15:00
11:35 PM,50.0,42.8,76,30.03,10.0,NNW,3.5,-,N/A,,Overcast,340,2012-12-12 07:35:00
11:55 PM,48.2,42.8,82,30.03,10.0,Calm,Calm,-,N/A,,Overcast,0,2012-12-12 07:55:00